JBU963 KMCO-KLAS

Flight info

Callsign JBU963
Flight time N/A
Altitude 30000
Route RDSOX1 JFRYS PATOY Q116 JAWJA CABLO MEI/N0458F320 ELD ADM KA30Y GUP HAHAA RKSTR4
Aircraft A321/M-SDE3FGHIRWY/LB1

Departure

Time 2026-04-25 15:20
Airport Orlando International Airport (KMCO)

Arrival

Time N/A
Airport Harry Reid International Airport (KLAS)
Time Latitude Longitude Altitude Speed Heading
2026-04-25 14:51 28.41411 -81.31469 95 ft 0 kts 90°
2026-04-25 15:01 28.41411 -81.31474 94 ft 3 kts 90°
2026-04-25 15:02 28.41412 -81.31504 94 ft 4 kts 91°
2026-04-25 15:02 28.41412 -81.31535 94 ft 4 kts 82°
2026-04-25 15:02 28.41405 -81.31560 96 ft 4 kts 37°
2026-04-25 15:02 28.41406 -81.31564 94 ft 4 kts
2026-04-25 15:03 28.41433 -81.31562 95 ft 4 kts
2026-04-25 15:03 28.41440 -81.31561 94 ft 0 kts
2026-04-25 15:05 28.41442 -81.31560 94 ft 1 kts
2026-04-25 15:05 28.41463 -81.31558 94 ft 5 kts
2026-04-25 15:05 28.41512 -81.31552 94 ft 9 kts
2026-04-25 15:06 28.41629 -81.31602 94 ft 10 kts 296°
2026-04-25 15:06 28.41654 -81.31666 97 ft 6 kts 294°
2026-04-25 15:06 28.41662 -81.31687 98 ft 1 kts 294°
2026-04-25 15:06 28.41664 -81.31693 98 ft 1 kts 294°
2026-04-25 15:07 28.41665 -81.31696 98 ft 0 kts 294°
2026-04-25 15:08 28.41666 -81.31698 98 ft 1 kts 294°
2026-04-25 15:08 28.41675 -81.31721 98 ft 5 kts 294°
2026-04-25 15:08 28.41697 -81.31773 98 ft 8 kts 303°
2026-04-25 15:09 28.41748 -81.31806 98 ft 8 kts 315°
2026-04-25 15:09 28.41776 -81.31867 98 ft 9 kts 321°
2026-04-25 15:09 28.41940 -81.31877 98 ft 16 kts 359°
2026-04-25 15:10 28.42059 -81.31878 100 ft 18 kts 359°
2026-04-25 15:10 28.42178 -81.31858 97 ft 17 kts 14°
2026-04-25 15:10 28.42404 -81.31832 100 ft 16 kts
2026-04-25 15:11 28.42510 -81.31835 101 ft 15 kts 358°
2026-04-25 15:11 28.42613 -81.31835 102 ft 15 kts
2026-04-25 15:11 28.42716 -81.31835 100 ft 15 kts 359°
2026-04-25 15:12 28.42947 -81.31839 100 ft 17 kts 359°
2026-04-25 15:12 28.43065 -81.31840 99 ft 17 kts 359°
2026-04-25 15:12 28.43182 -81.31841 98 ft 17 kts 359°
2026-04-25 15:12 28.43222 -81.31841 98 ft 17 kts 359°
2026-04-25 15:13 28.43417 -81.31844 101 ft 17 kts 359°
2026-04-25 15:13 28.43644 -81.31846 99 ft 16 kts 360°
2026-04-25 15:13 28.43757 -81.31846 99 ft 16 kts 360°
2026-04-25 15:14 28.43867 -81.31847 101 ft 16 kts 359°
2026-04-25 15:14 28.43973 -81.31869 101 ft 16 kts 341°
2026-04-25 15:14 28.44079 -81.31900 98 ft 16 kts 357°
2026-04-25 15:14 28.44189 -81.31902 99 ft 16 kts 359°
2026-04-25 15:15 28.44299 -81.31903 98 ft 16 kts 359°
2026-04-25 15:15 28.44409 -81.31904 100 ft 16 kts 359°
2026-04-25 15:15 28.44519 -81.31905 100 ft 16 kts 359°
2026-04-25 15:15 28.44629 -81.31906 98 ft 16 kts 359°
2026-04-25 15:16 28.44738 -81.31908 98 ft 15 kts 359°
2026-04-25 15:16 28.44807 -81.31918 98 ft 8 kts 331°
2026-04-25 15:16 28.44825 -81.32042 97 ft 9 kts 270°
2026-04-25 15:17 28.44824 -81.32121 97 ft 0 kts 269°
2026-04-25 15:18 28.44823 -81.32147 99 ft 5 kts 269°
2026-04-25 15:18 28.44823 -81.32195 99 ft 7 kts 269°
2026-04-25 15:19 28.44799 -81.32229 97 ft 6 kts 196°
2026-04-25 15:19 28.44786 -81.32231 99 ft 5 kts 184°
2026-04-25 15:19 28.44619 -81.32231 100 ft 50 kts 179°
2026-04-25 15:19 28.44047 -81.32224 101 ft 112 kts 179°
2026-04-25 15:20 28.43081 -81.32213 99 ft 163 kts 179°
2026-04-25 15:20 28.41820 -81.32196 264 ft 190 kts 179°
2026-04-25 15:20 28.40530 -81.32176 1073 ft 183 kts 182°
2026-04-25 15:20 28.39297 -81.32476 1629 ft 183 kts 204°
2026-04-25 15:21 28.38093 -81.33187 1773 ft 204 kts 208°
2026-04-25 15:21 28.36808 -81.33993 2008 ft 218 kts 212°
2026-04-25 15:21 28.35699 -81.35256 2207 ft 237 kts 238°
2026-04-25 15:21 28.35160 -81.37093 2397 ft 259 kts 265°
2026-04-25 15:22 28.35396 -81.39161 2840 ft 270 kts 288°
2026-04-25 15:22 28.36163 -81.41105 3525 ft 270 kts 297°
2026-04-25 15:22 28.37108 -81.42956 4208 ft 272 kts 301°
2026-04-25 15:22 28.38117 -81.44782 4873 ft 273 kts 302°
2026-04-25 15:23 28.39124 -81.46620 5519 ft 275 kts 301°
2026-04-25 15:23 28.40110 -81.48488 6155 ft 277 kts 300°
2026-04-25 15:23 28.41071 -81.50390 6766 ft 279 kts 299°
2026-04-25 15:23 28.42017 -81.52322 7380 ft 281 kts 298°
2026-04-25 15:24 28.42960 -81.54279 7988 ft 283 kts 298°
2026-04-25 15:24 28.43903 -81.56253 8541 ft 286 kts 298°
2026-04-25 15:25 28.45033 -81.58626 9211 ft 288 kts 298°
2026-04-25 15:25 28.45990 -81.60642 9748 ft 291 kts 298°
2026-04-25 15:25 28.46953 -81.62675 10203 ft 298 kts 298°
2026-04-25 15:25 28.47967 -81.64812 10337 ft 316 kts 298°
2026-04-25 15:26 28.49039 -81.67072 10480 ft 333 kts 298°
2026-04-25 15:26 28.50166 -81.69452 10608 ft 350 kts 298°
2026-04-25 15:26 28.51359 -81.71976 10749 ft 365 kts 298°
2026-04-25 15:26 28.52568 -81.74538 11173 ft 371 kts 298°
2026-04-25 15:27 28.53778 -81.77100 11720 ft 373 kts 298°
2026-04-25 15:27 28.55027 -81.79735 12311 ft 374 kts 298°
2026-04-25 15:27 28.57506 -81.84964 13440 ft 378 kts 298°
2026-04-25 15:28 28.58755 -81.87601 13971 ft 380 kts 298°
2026-04-25 15:28 28.60010 -81.90259 14481 ft 383 kts 298°
2026-04-25 15:28 28.61269 -81.92935 14997 ft 385 kts 298°
2026-04-25 15:28 28.62534 -81.95629 15497 ft 387 kts 298°
2026-04-25 15:29 28.63806 -81.98338 15982 ft 390 kts 298°
2026-04-25 15:29 28.65090 -82.01065 16470 ft 392 kts 298°
2026-04-25 15:29 28.66384 -82.03812 16928 ft 395 kts 298°
2026-04-25 15:29 28.67685 -82.06577 17382 ft 397 kts 298°
2026-04-25 15:30 28.68995 -82.09364 17817 ft 400 kts 298°
2026-04-25 15:30 28.70303 -82.12150 18237 ft 402 kts 298°
2026-04-25 15:30 28.71629 -82.14978 18636 ft 404 kts 298°
2026-04-25 15:30 28.72956 -82.17816 19022 ft 407 kts 298°
2026-04-25 15:31 28.73856 -82.19741 19276 ft 408 kts 298°
2026-04-25 15:31 28.75194 -82.22602 19641 ft 411 kts 298°
2026-04-25 15:31 28.76541 -82.25479 20032 ft 413 kts 298°
2026-04-25 15:31 28.77896 -82.28381 20398 ft 415 kts 298°
2026-04-25 15:32 28.79252 -82.31290 20754 ft 417 kts 298°
2026-04-25 15:32 28.80618 -82.34217 21085 ft 420 kts 298°
2026-04-25 15:32 28.81993 -82.37166 21408 ft 422 kts 298°
2026-04-25 15:33 28.84669 -82.42908 22018 ft 426 kts 298°
2026-04-25 15:33 28.86063 -82.45902 22328 ft 428 kts 298°
2026-04-25 15:33 28.87462 -82.48913 22626 ft 430 kts 298°
2026-04-25 15:33 28.88862 -82.51938 22927 ft 432 kts 298°
2026-04-25 15:34 28.90270 -82.54978 23203 ft 435 kts 298°
2026-04-25 15:34 28.91691 -82.58038 23491 ft 436 kts 299°
2026-04-25 15:34 28.93114 -82.61100 23779 ft 438 kts 299°
2026-04-25 15:34 28.94080 -82.63179 23946 ft 440 kts 299°
2026-04-25 15:35 28.97430 -82.70397 24555 ft 445 kts 299°
2026-04-25 15:35 28.98877 -82.73529 24800 ft 447 kts 298°
2026-04-25 15:35 29.00329 -82.76679 25043 ft 449 kts 299°
2026-04-25 15:36 29.03270 -82.83071 25535 ft 453 kts 299°
2026-04-25 15:36 29.04760 -82.86255 25775 ft 454 kts 302°
2026-04-25 15:36 29.06576 -82.89207 26010 ft 455 kts 311°
2026-04-25 15:37 29.08790 -82.91786 26245 ft 456 kts 320°
2026-04-25 15:37 29.11315 -82.93962 26557 ft 455 kts 325°
2026-04-25 15:37 29.13893 -82.96061 26897 ft 454 kts 325°
2026-04-25 15:37 29.16462 -82.98159 27234 ft 453 kts 325°
2026-04-25 15:38 29.19024 -83.00252 27567 ft 453 kts 325°
2026-04-25 15:38 29.21590 -83.02349 27876 ft 453 kts 325°
2026-04-25 15:38 29.24149 -83.04443 28197 ft 452 kts 325°
2026-04-25 15:38 29.26706 -83.06536 28507 ft 451 kts 325°
2026-04-25 15:39 29.29262 -83.08630 28811 ft 451 kts 325°
2026-04-25 15:39 29.31816 -83.10725 29107 ft 451 kts 325°
2026-04-25 15:39 29.34365 -83.12815 29411 ft 451 kts 325°
2026-04-25 15:39 29.36913 -83.14903 29704 ft 450 kts 325°
2026-04-25 15:40 29.39440 -83.16979 29934 ft 450 kts 325°
2026-04-25 15:40 29.41161 -83.18395 29977 ft 449 kts 325°
2026-04-25 15:40 29.47051 -83.23254 29989 ft 447 kts 325°
2026-04-25 15:41 29.52107 -83.27416 29989 ft 448 kts 325°
2026-04-25 15:41 29.57170 -83.31588 29989 ft 448 kts 325°
2026-04-25 15:42 29.62266 -83.35790 29990 ft 448 kts 325°
2026-04-25 15:42 29.67331 -83.39975 29987 ft 449 kts 325°
2026-04-25 15:43 29.72399 -83.44165 29985 ft 448 kts 325°
2026-04-25 15:43 29.77472 -83.48368 29971 ft 451 kts 325°
2026-04-25 15:44 29.82574 -83.52611 29970 ft 454 kts 325°
2026-04-25 15:44 29.87702 -83.56887 29974 ft 456 kts 325°
2026-04-25 15:45 29.92849 -83.61169 29983 ft 457 kts 325°
2026-04-25 15:45 29.97138 -83.64730 29990 ft 457 kts 325°
2026-04-25 15:46 30.03171 -83.69752 29998 ft 458 kts 325°
2026-04-25 15:46 30.08338 -83.74071 30012 ft 458 kts 325°
2026-04-25 15:47 30.13507 -83.78395 30020 ft 459 kts 325°
2026-04-25 15:47 30.18261 -83.83289 30001 ft 460 kts 310°
2026-04-25 15:48 30.21805 -83.89094 30000 ft 462 kts 306°
2026-04-25 15:48 30.25437 -83.95224 30001 ft 462 kts 306°
2026-04-25 15:49 30.29069 -84.01357 30017 ft 462 kts 306°
2026-04-25 15:49 30.32693 -84.07486 30000 ft 462 kts 305°
2026-04-25 15:50 30.36321 -84.13633 29998 ft 462 kts 305°
2026-04-25 15:50 30.39975 -84.19813 30000 ft 462 kts 305°
2026-04-25 15:51 30.42980 -84.24919 30001 ft 461 kts 305°
2026-04-25 15:51 30.47197 -84.32105 29993 ft 461 kts 305°
2026-04-25 15:52 30.50803 -84.38237 29989 ft 461 kts 305°
2026-04-25 15:52 30.54410 -84.44387 29997 ft 461 kts 305°
2026-04-25 15:53 30.58013 -84.50545 30010 ft 461 kts 304°
2026-04-25 15:53 30.61609 -84.56708 30019 ft 461 kts 304°
2026-04-25 15:54 30.65197 -84.62862 30025 ft 460 kts 304°
2026-04-25 15:54 30.68780 -84.69015 30013 ft 460 kts 304°
2026-04-25 15:55 30.72385 -84.75220 30024 ft 459 kts 304°
2026-04-25 15:55 30.75920 -84.81330 30001 ft 459 kts 304°
2026-04-25 15:56 30.79099 -84.87813 29995 ft 458 kts 296°
2026-04-25 15:56 30.81932 -84.94454 29995 ft 459 kts 296°
2026-04-25 15:57 30.84761 -85.01101 29997 ft 458 kts 296°
2026-04-25 15:57 30.87588 -85.07755 29997 ft 458 kts 296°
2026-04-25 15:58 30.90415 -85.14398 29990 ft 458 kts 296°
2026-04-25 15:58 30.93228 -85.21046 29987 ft 458 kts 296°
2026-04-25 15:59 30.96035 -85.27707 29984 ft 457 kts 296°
2026-04-25 15:59 30.98838 -85.34356 29983 ft 457 kts 296°
2026-04-25 16:00 31.00713 -85.38801 29985 ft 457 kts 296°
2026-04-25 16:00 31.04425 -85.47647 29984 ft 456 kts 296°
2026-04-25 16:01 31.07212 -85.54289 29982 ft 456 kts 296°
2026-04-25 16:01 31.09998 -85.60942 29979 ft 456 kts 296°
2026-04-25 16:02 31.12793 -85.67639 29975 ft 456 kts 295°
2026-04-25 16:02 31.15103 -85.73174 29968 ft 456 kts 295°
2026-04-25 16:03 31.17872 -85.79837 29958 ft 456 kts 295°
2026-04-25 16:03 31.20643 -85.86499 29952 ft 456 kts 295°
2026-04-25 16:04 31.23407 -85.93162 29953 ft 456 kts 295°
2026-04-25 16:04 31.26169 -85.99828 29953 ft 456 kts 295°
2026-04-25 16:05 31.28932 -86.06495 29955 ft 455 kts 295°
2026-04-25 16:06 31.33060 -86.16494 29955 ft 454 kts 295°
2026-04-25 16:06 31.35794 -86.23144 29950 ft 454 kts 295°
2026-04-25 16:07 31.38438 -86.29584 29944 ft 453 kts 295°
2026-04-25 16:07 31.41182 -86.36274 29936 ft 453 kts 295°
2026-04-25 16:08 31.43902 -86.42928 29931 ft 453 kts 295°
2026-04-25 16:08 31.46625 -86.49587 29929 ft 454 kts 295°
2026-04-25 16:09 31.49349 -86.56257 29936 ft 454 kts 294°
2026-04-25 16:09 31.52061 -86.62927 29938 ft 453 kts 294°
2026-04-25 16:10 31.54770 -86.69597 29938 ft 453 kts 294°
2026-04-25 16:10 31.57475 -86.76286 29938 ft 453 kts 294°
2026-04-25 16:11 31.60177 -86.82966 29938 ft 453 kts 294°
2026-04-25 16:11 31.62876 -86.89643 29940 ft 453 kts 294°
2026-04-25 16:12 31.65575 -86.96322 29938 ft 452 kts 294°
2026-04-25 16:12 31.68262 -87.02986 29937 ft 452 kts 294°
2026-04-25 16:13 31.70937 -87.09657 29934 ft 451 kts 294°
2026-04-25 16:13 31.73610 -87.16320 29930 ft 450 kts 294°
2026-04-25 16:14 31.76286 -87.23008 29928 ft 449 kts 294°
2026-04-25 16:14 31.78941 -87.29649 29925 ft 448 kts 294°
2026-04-25 16:15 31.81586 -87.36284 29926 ft 448 kts 293°
2026-04-25 16:15 31.84217 -87.42900 29926 ft 446 kts 293°
2026-04-25 16:16 31.86848 -87.49514 29924 ft 446 kts 293°
2026-04-25 16:16 31.89471 -87.56119 29925 ft 445 kts 293°
2026-04-25 16:17 31.92079 -87.62711 29925 ft 444 kts 293°
2026-04-25 16:17 31.94673 -87.69295 29930 ft 443 kts 292°